sat.trackr.live / text

‹ back to catalog

6GSTARLAB

NORAD 66683 · 2025-276T

PAYLOAD ACTIVE UNKNOWN

§ Identity

Operator
Country
SPN
Launch date
2025-11-28
Launch site
AFWTR
Launch vehicle
Mass (kg)
RCS (m²)

External: N2YO · Heavens-Above · Gunter

§ Orbital elements

Epoch: 2026-05-25T04:31:50.833056Z

Period
94.85 min
Inclination
97.4248°
Eccentricity
0.0007522
Mean motion
15.18247496 rev/d
Perigee alt
506.0 km
Apogee alt
516.3 km
Semi-major
6,889.3 km
B*
1.3194e-4
RAAN
218.9982°
Arg perigee
79.8945°
Mean anomaly
280.3137°
Rev number
2,691

§ Raw data

6GSTARLAB1 66683U 25276T   26145.18878279  .00002636  00000+0  13194-3 0  99962 66683  97.4248 218.9982 0007522  79.8945 280.3137 15.18247496 26911

JSON: /api/v1/satellites/66683 · /tle

For live sub-satellite position, see the globe view (requires WebGL).

§ Visibility from observer

Set your observer location to see the next 7 days of passes ≥ 10°. The values pass through the URL so the page stays shareable.

No JS? Fill the form by hand. The geolocation button needs JavaScript.